Wind_Speed
40 40 40 40 39 40 42 43 45 46 47 48 48 49 50 51 53 54 54 54 54 54 54 54 55 55 55 55 55 56 57 57 58 58 57 56 54 53 52 52 52 53 54 55 56 58 59 61 62 64 66 68 69 68 64 61 59 57 55 53 51 49 48 46 44 42 41 39 38 37 37 37 37 37 37 40 44 44 44 45 47 48 48 49 50
42 43 44 43 42 41 41 41 41 42 42 43 44 45 47 48 49 50 50 50 51 52 52 54 54 55 55 55 56 57 57 58 59 58 57 55 53 52 51 52 52 54 55 57 59 60 62 63 65 67 69 71 71 68 64 61 59 57 55 53 52 50 49 46 44 43 41 39 38 38 37 37 38 39 39 40 44 47 47 47 50 51 51 51 51
42 42 44 44 44 43 42 42 42 42 42 42 43 44 45 46 47 48 48 49 51 51 52 53 54 55 55 56 57 58 58 58 58 57 56 54 52 51 51 52 54 55 57 58 61 63 64 66 68 70 73 73 71 67 64 62 60 58 56 54 53 52 50 47 45 42 40 39 38 38 38 38 39 40 41 42 44 48 50 50 52 54 55 55 54
43 42 42 43 44 44 44 44 44 44 44 44 44 44 44 45 46 47 48 49 50 51 52 53 54 55 57 57 58 58 58 57 56 55 54 52 51 51 52 54 55 57 58 60 62 64 66 68 71 73 74 74 71 67 64 63 61 59 57 56 55 54 52 49 46 43 40 39 38 38 38 39 41 42 44 45 46 49 53 54 55 56 58 59 58
44 42 41 42 43 44 44 45 44 44 44 44 44 44 45 46 47 48 49 50 51 51 52 54 55 56 57 57 57 57 57 56 54 53 51 51 52 53 54 55 57 58 60 62 64 66 68 71 73 75 76 74 70 67 65 64 62 60 59 58 57 55 53 50 47 44 41 40 39 39 38 39 41 43 45 48 48 50 53 57 59 59 61 62 62
43 43 42 43 43 44 45 45 45 45 45 45 45 46 47 48 49 50 51 52 52 53 54 55 56 56 56 56 57 57 56 55 54 52 51 52 54 55 56 57 59 60 62 64 66 68 71 72 74 76 76 73 70 68 67 65 63 61 60 59 58 56 53 51 48 46 44 43 42 42 42 42 42 43 45 48 51 53 54 58 61 63 63 65 66
43 43 43 43 44 45 45 45 46 46 46 47 47 48 50 51 52 53 53 54 54 55 55 55 56 56 55 56 56 57 56 55 54 53 52 53 55 56 57 59 61 62 64 66 68 70 72 74 76 77 75 73 70 69 68 66 64 63 62 61 59 56 53 51 49 47 47 46 46 46 47 47 47 47 46 47 51 54 56 59 63 66 66 67 69
44 43 43 42 42 43 44 45 45 46 47 47 48 50 51 52 53 54 55 55 55 55 55 55 55 54 55 56 56 56 55 55 54 54 53 54 56 58 59 61 62 64 66 68 71 73 74 76 77 76 74 72 71 69 68 67 65 64 63 62 60 57 54 52 51 50 50 50 50 50 51 52 53 53 52 51 50 52 56 59 63 67 69 69 70
46 44 41 40 41 42 43 44 45 46 47 48 49 51 53 53 55 55 56 56 56 55 55 54 54 54 55 56 56 56 56 55 55 54 55 56 58 59 61 63 64 66 68 71 73 75 76 77 77 76 74 72 71 70 69 67 66 65 64 63 61 59 56 54 53 53 52 53 54 54 55 55 56 56 56 55 53 52 53 57 61 65 70 72 72
46 44 42 41 42 44 45 46 46 47 48 49 51 52 53 54 55 55 56 55 55 54 54 53 54 55 56 56 56 56 56 55 55 55 56 58 60 61 63 65 66 68 71 73 76 77 77 77 76 75 73 72 71 70 69 67 67 66 65 64 63 61 58 57 56 55 56 56 57 58 58 58 57 56 55 54 54 53 53 54 58 62 67 72 75
46 45 44 44 45 47 49 49 49 49 50 51 52 52 53 53 54 54 54 54 53 53 54 54 54 55 55 55 56 55 55 55 55 56 58 60 62 63 65 66 68 71 73 75 77 77 76 76 75 74 73 72 71 70 69 68 67 66 66 66 65 62 60 59 58 58 59 59 60 60 59 58 56 54 52 51 51 51 52 52 55 58 63 68 74
46 45 45 47 48 49 50 50 50 51 51 51 51 51 52 52 53 53 53 53 53 53 54 54 54 55 55 55 55 55 54 55 56 58 60 62 63 65 66 68 70 73 75 76 76 76 75 74 74 73 72 72 71 70 69 68 68 67 68 67 65 63 62 60 60 60 61 61 60 59 58 57 56 53 51 49 48 48 48 50 52 55 59 64 69
44 44 45 46 48 49 49 49 49 49 49 49 50 50 51 51 52 53 53 53 53 54 54 54 55 55 55 55 55 55 55 57 59 61 62 63 65 66 68 70 73 75 76 76 75 75 74 73 73 72 72 71 70 70 69 69 69 69 68 67 65 63 63 62 62 62 61 60 59 58 57 56 55 54 52 49 47 46 45 46 48 51 55 60 64
44 44 46 48 50 50 49 48 47 48 48 49 50 50 51 51 52 52 52 53 53 54 54 55 55 55 55 55 55 56 57 59 61 63 64 65 66 68 70 72 74 75 75 75 74 73 73 72 72 71 71 70 70 69 69 69 70 70 68 66 64 64 64 65 64 62 60 59 58 57 55 54 53 52 51 49 46 45 44 43 44 47 50 55 60
45 47 49 51 53 53 52 50 49 49 50 50 51 51 51 51 51 51 52 53 53 54 54 54 55 55 55 56 57 58 59 61 62 64 65 66 67 69 72 74 75 75 74 74 73 72 72 71 71 70 70 69 69 69 70 70 70 69 67 65 64 65 66 67 65 63 61 59 58 56 54 52 51 49 48 47 46 44 43 43 42 44 46 50 55
50 53 55 57 58 58 56 54 52 52 52 52 52 51 51 51 52 52 52 53 53 54 54 54 55 55 56 57 58 59 60 62 63 65 66 68 70 72 74 75 74 74 73 73 72 71 71 70 70 69 69 69 69 70 70 70 69 67 66 65 65 66 67 67 66 64 61 58 56 54 52 50 49 47 46 45 44 43 42 42 42 43 44 46 50
51 52 55 57 57 56 55 53 52 52 52 51 51 51 52 52 53 53 53 53 54 54 55 55 56 56 58 59 60 60 61 63 65 67 69 70 72 74 74 74 73 73 72 71 71 70 70 69 69 68 69 69 70 70 70 70 68 66 65 65 66 67 66 66 66 64 61 57 54 52 49 47 45 44 43 42 41 41 40 40 41 42 43 45 46
43 42 44 47 49 50 51 50 50 50 50 50 51 52 53 53 54 54 54 55 55 56 56 56 57 58 59 60 61 62 63 66 68 70 71 72 73 73 72 72 72 71 71 70 70 69 68 68 68 68 68 69 70 70 69 68 67 65 65 66 67 67 67 66 65 63 59 55 52 50 47 44 42 40 39 39 38 38 38 38 39 40 42 44 46
40 38 40 43 45 48 50 51 53 53 51 51 52 53 54 55 55 56 56 56 56 57 57 58 59 60 61 62 63 65 67 69 70 70 71 71 71 71 71 70 70 70 69 68 68 68 67 67 67 67 69 69 69 69 69 67 65 65 66 67 68 68 67 65 63 61 58 54 51 48 46 43 40 38 37 36 35 35 35 36 37 38 39 42 44
43 42 42 44 47 50 52 54 55 55 53 54 55 56 57 57 57 57 57 57 57 58 58 59 60 61 63 64 65 67 68 69 69 70 70 70 70 69 69 69 69 68 67 67 67 66 66 66 66 67 68 68 68 69 68 66 64 65 66 67 68 68 67 65 62 59 57 54 50 47 44 42 40 37 35 33 33 32 32 33 34 35 37 39 41
44 44 45 48 50 52 53 54 54 55 56 57 58 58 58 58 57 57 58 58 58 59 60 61 62 64 65 65 66 66 67 68 69 69 69 68 68 68 68 67 67 66 66 66 65 65 65 65 66 67 67 68 68 68 66 64 64 65 66 67 68 68 67 65 62 58 55 52 49 45 42 40 39 37 35 32 31 30 30 31 32 33 35 36 38
45 45 48 51 52 53 55 56 56 57 58 58 58 58 58 58 58 58 59 59 60 61 62 63 64 64 65 65 65 66 67 68 68 68 68 67 68 67 66 66 65 65 65 65 64 64 64 65 66 66 67 68 67 66 64 63 64 64 65 66 67 67 66 64 61 57 53 50 47 44 40 37 36 35 34 33 30 29 28 29 29 30 32 33 35
49 49 51 53 55 56 57 58 59 59 59 59 59 59 58 58 58 59 60 60 61 62 63 64 64 64 64 64 65 66 67 67 67 67 67 67 66 65 64 64 64 64 64 63 63 63 64 64 65 66 67 67 66 64 63 63 63 63 64 66 67 66 66 64 60 56 52 49 45 42 39 36 33 32 32 32 31 30 28 28 28 29 30 31 32
52 53 54 55 56 56 56 57 58 57 57 57 57 56 56 57 58 59 61 61 62 63 63 64 65 65 65 65 65 66 66 66 66 66 66 65 64 63 63 64 64 63 62 62 62 63 64 64 65 66 66 65 64 63 62 62 62 62 63 65 66 66 65 63 60 56 52 48 44 40 37 34 32 31 30 30 30 30 29 28 28 29 29 29 31
55 55 55 55 53 53 54 55 56 56 56 56 55 56 57 59 60 61 62 63 64 64 64 65 65 65 65 65 64 64 64 64 64 64 63 62 62 62 63 63 62 62 61 62 62 63 63 64 65 66 65 63 62 61 61 61 61 62 63 64 66 66 65 63 60 56 52 47 43 39 36 33 31 30 29 28 28 29 29 29 29 29 29 29 30
55 54 52 51 50 51 53 54 56 57 58 58 59 60 62 63 63 63 64 64 64 64 64 64 64 64 64 63 63 63 62 62 61 61 60 60 61 62 62 62 61 61 61 62 62 63 63 64 65 65 63 61 60 59 59 59 60 61 62 64 66 66 65 63 60 56 52 47 42 39 36 34 32 31 29 29 28 28 28 28 28 29 30 30 30
45 46 47 50 52 54 55 57 58 59 60 60 61 63 64 64 64 63 63 63 63 63 62 62 62 63 62 62 61 60 59 59 58 58 59 60 61 61 61 61 61 61 61 62 62 63 63 64 64 63 61 59 58 57 57 59 60 61 62 64 65 66 65 63 60 56 52 48 43 40 37 35 34 32 31 30 29 28 28 28 27 28 28 30 31
47 48 50 53 54 55 56 57 57 58 59 59 60 61 62 62 62 62 62 62 62 61 61 61 61 61 61 60 58 57 57 57 57 58 59 60 60 60 60 60 60 61 61 61 62 63 63 63 63 61 59 57 56 56 57 58 60 61 62 63 65 66 65 64 61 58 54 49 44 41 38 36 35 34 32 31 30 29 28 28 27 27 26 27 29
50 53 54 55 55 54 55 56 57 58 58 58 59 60 60 60 61 61 61 61 61 61 60 60 60 59 57 56 56 56 56 57 57 58 59 60 60 60 60 60 60 61 61 61 62 63 63 62 61 58 56 55 54 55 56 58 59 60 62 63 65 66 65 64 62 58 54 49 45 41 39 37 35 34 32 31 30 29 29 28 28 27 26 26 27
51 54 56 56 56 56 57 59 59 59 60 60 61 60 60 60 60 61 61 61 61 60 59 58 57 56 54 54 55 56 57 57 58 59 59 59 59 59 59 59 60 61 61 61 62 62 62 60 58 55 54 53 53 54 56 58 60 60 61 62 64 65 65 64 62 59 55 50 45 42 40 38 36 34 33 31 30 29 28 28 28 27 27 27 27
55 57 59 59 59 60 61 61 60 60 61 62 62 62 61 60 60 60 59 59 58 58 57 56 55 54 54 55 56 58 58 59 58 58 58 58 58 59 59 60 60 61 61 62 62 62 60 58 55 53 52 52 53 54 56 58 60 60 61 62 64 65 65 65 62 59 56 51 47 43 41 39 36 34 33 32 30 29 28 28 28 27 27 27 27
55 56 58 59 59 60 60 60 60 60 60 60 59 59 58 57 55 55 56 56 55 55 55 55 55 56 57 58 59 59 59 58 57 57 57 58 58 58 59 60 60 60 61 62 61 60 58 55 53 51 51 52 53 54 56 58 60 61 61 62 63 64 65 65 63 60 57 53 48 44 42 40 38 35 34 32 31 30 29 29 28 28 28 28 28
53 54 56 57 57 57 57 57 56 55 55 54 55 55 55 55 55 55 56 56 56 56 56 57 58 59 59 60 60 59 57 56 56 56 57 57 58 58 59 59 60 61 61 61 60 58 56 53 51 50 51 52 53 55 57 59 61 61 61 62 63 64 65 65 64 61 58 55 50 46 43 41 39 37 35 33 32 31 30 30 29 29 29 29 29
53 54 57 57 55 55 55 54 53 53 53 54 55 56 57 58 58 57 57 57 56 56 56 56 56 57 57 57 56 55 54 54 55 55 56 57 57 58 59 59 60 60 60 60 58 56 53 51 50 50 51 52 53 55 58 60 61 62 62 62 63 64 64 64 64 62 59 56 52 47 44 42 40 38 36 34 33 32 31 31 30 30 30 30 30
55 56 57 57 56 55 55 55 56 57 58 58 58 58 58 58 58 57 57 56 55 54 52 52 51 51 51 51 52 53 53 54 54 55 55 56 57 58 59 59 60 60 59 58 56 54 52 50 50 50 51 52 54 56 58 60 61 62 62 62 63 64 64 65 64 63 60 58 54 49 45 42 40 38 37 35 34 32 32 32 31 31 31 31 31
58 57 57 58 57 57 57 58 59 60 60 60 60 58 57 57 57 57 56 55 53 52 51 50 49 49 49 50 52 53 53 53 54 55 55 56 57 58 58 59 59 58 57 56 54 53 51 50 50 50 51 53 55 57 59 61 62 63 63 63 63 64 65 65 65 64 61 59 56 51 47 43 41 39 37 36 35 34 33 33 33 32 32 32 32
60 59 59 60 60 60 61 62 62 62 62 61 60 59 57 57 57 56 56 55 53 52 51 50 50 50 51 52 52 52 53 53 54 55 55 56 57 58 58 58 57 56 55 54 53 52 51 50 50 51 52 54 56 58 60 61 63 64 64 64 65 65 65 65 65 64 63 60 57 53 49 44 42 40 38 36 36 35 35 34 34 34 34 33 33
61 61 61 61 61 62 63 63 63 63 63 62 60 58 57 56 56 55 55 54 52 51 51 51 51 51 52 52 52 52 53 54 54 55 55 56 57 57 57 56 55 54 53 52 51 51 50 50 51 52 53 55 57 59 60 62 64 65 66 66 67 66 66 66 65 65 64 61 59 56 51 46 43 41 38 36 35 35 35 35 35 34 34 34 34
61 61 61 61 62 62 63 63 63 63 63 61 59 57 55 54 53 53 52 51 50 49 49 50 51 51 52 52 52 52 53 54 54 55 56 56 56 56 56 55 54 54 52 51 50 50 50 51 52 53 55 56 58 59 61 64 65 67 68 69 69 68 67 67 66 65 64 62 60 58 54 49 45 42 40 38 36 36 36 36 35 35 35 35 34
61 61 61 61 62 62 62 63 62 61 59 57 55 53 52 52 50 49 49 48 47 47 48 49 50 51 52 52 52 53 54 54 55 56 56 56 56 56 56 55 54 53 51 50 50 51 51 52 53 54 55 56 58 61 63 66 68 69 70 71 71 71 69 68 67 66 65 63 61 59 56 51 46 43 41 39 38 37 36 36 36 36 36 36 35
60 60 60 60 60 60 60 60 58 56 55 53 52 51 50 49 48 47 46 46 46 47 48 49 50 51 52 52 52 54 55 56 56 56 56 57 57 56 56 55 54 52 50 50 51 52 52 53 54 54 56 58 61 64 66 68 70 71 72 73 74 73 72 70 69 68 67 65 62 60 57 53 48 44 42 41 39 38 37 37 37 37 36 36 36
57 56 56 56 56 57 57 56 54 53 52 51 51 50 49 48 47 46 46 45 46 48 49 49 50 51 52 53 54 55 56 57 57 57 57 58 57 57 56 56 54 51 50 51 54 55 56 56 56 57 59 61 63 66 68 71 72 73 74 75 75 75 74 72 71 69 68 66 64 62 59 55 50 46 43 41 40 39 38 38 38 37 37 37 37
53 53 52 52 52 53 55 54 51 50 51 51 51 50 49 49 49 48 47 47 48 49 50 51 52 53 53 54 55 56 57 58 58 58 59 59 58 58 58 57 54 52 52 54 57 59 59 59 59 60 61 63 66 68 70 73 74 75 76 77 77 77 76 75 73 71 69 68 66 63 60 56 52 48 45 42 41 40 39 38 38 38 38 38 38
47 47 48 47 48 50 52 52 51 51 51 51 51 51 51 51 51 51 50 50 50 51 52 53 53 54 55 55 56 56 57 58 58 59 60 60 59 59 59 57 54 54 55 57 60 62 62 62 62 63 64 66 68 70 73 75 76 77 78 79 79 79 78 77 75 73 71 69 68 65 62 57 52 48 46 44 42 40 40 39 39 38 38 39 39
42 42 42 42 44 48 51 52 52 52 52 53 53 53 53 53 53 53 52 51 52 52 53 54 55 55 55 56 57 57 57 58 59 60 61 61 61 60 59 57 56 56 58 60 63 65 65 64 65 66 67 69 70 73 75 76 78 79 80 81 81 81 80 79 78 76 73 70 69 66 63 59 54 49 46 45 43 41 40 40 40 39 39 39 39
42 42 42 42 44 48 50 51 52 53 53 54 54 55 54 54 54 54 53 53 53 53 54 55 56 56 56 57 57 58 58 59 60 62 62 62 62 61 60 58 58 59 61 63 66 67 67 67 68 69 70 72 73 75 77 79 80 81 82 83 82 81 80 80 80 78 75 72 70 67 63 59 55 50 47 45 45 43 42 40 40 40 40 40 40
42 44 45 46 48 50 51 52 53 55 55 56 56 56 55 53 53 53 54 54 54 54 55 56 57 57 58 58 58 59 60 61 62 63 64 64 63 62 61 60 60 62 64 66 68 69 69 70 71 72 73 74 76 77 79 81 82 84 85 85 84 82 81 80 80 78 76 74 71 68 63 59 54 50 47 46 45 44 43 42 41 41 40 41 41
41 43 45 47 49 52 55 57 58 57 56 56 58 59 57 55 53 53 54 55 55 55 56 58 59 59 59 59 60 61 62 63 64 65 65 64 64 63 62 62 63 65 67 69 70 70 71 73 74 75 76 77 78 80 81 83 84 86 87 87 86 84 83 81 80 79 76 74 71 67 63 58 53 50 47 46 46 46 45 45 44 43 42 42 42
43 44 46 48 51 55 58 59 58 57 56 57 58 60 60 59 58 56 56 57 58 58 58 59 60 61 61 61 62 63 64 65 66 66 66 65 64 64 64 65 66 68 69 71 72 73 74 75 77 78 79 80 81 83 84 85 86 88 89 89 87 85 84 82 81 80 77 74 70 66 61 57 53 49 47 46 46 46 46 46 46 46 45 45 45
45 47 49 51 53 56 57 57 56 56 56 57 59 61 63 63 61 59 60 61 61 61 61 61 62 62 63 63 64 66 67 67 67 67 67 66 66 66 66 68 69 70 72 73 74 75 77 78 80 81 82 83 84 86 87 88 90 91 91 89 88 86 85 83 81 79 76 72 68 64 59 56 53 50 48 47 46 46 46 46 46 47 47 47 47
50 51 52 53 53 54 54 55 56 56 57 58 60 63 64 63 61 61 62 63 64 63 63 63 63 64 65 66 67 68 69 69 68 68 67 67 68 68 69 70 71 73 75 76 77 79 80 81 82 83 84 86 87 89 90 92 93 93 92 90 88 87 85 83 80 78 74 69 64 60 56 53 51 50 49 49 49 48 48 48 48 49 49 49 50
Wind_Direction
263 264 265 267 268 268 268 268 269 270 271 272 274 275 276 277 277 278 280 282 284 286 288 290 292 293 295 297 299 300 300 301 302 303 305 307 308 308 307 307 308 310 312 315 318 320 321 322 323 324 325 325 325 324 322 321 320 319 318 317 316 315 313 309 306 302 297 293 289 284 280 276 271 265 257 248 243 241 238 234 232 230 228 227 227
262 263 264 267 270 272 273 273 274 274 275 275 276 277 278 278 279 281 283 285 287 289 291 293 294 295 297 298 300 300 300 301 303 304 306 306 306 306 305 306 308 311 313 316 319 321 322 323 324 325 326 325 324 323 322 321 320 319 318 318 317 316 314 311 307 302 298 292 287 282 277 273 270 267 263 255 246 242 239 236 232 230 229 228 227
263 264 264 266 269 271 273 275 275 276 277 277 278 279 280 281 282 284 287 289 291 293 294 295 296 297 298 299 300 300 301 302 303 305 306 306 305 305 305 307 309 312 314 317 319 321 323 324 325 325 325 324 324 322 321 320 320 320 319 319 318 317 315 312 308 303 298 294 288 283 277 271 267 264 262 258 251 243 239 237 234 231 229 229 228
264 266 267 268 269 270 272 274 274 276 278 278 278 280 282 284 286 289 291 293 294 296 296 297 298 299 299 300 300 301 301 302 304 305 305 304 304 304 305 308 311 313 315 317 319 321 323 324 325 324 324 323 323 322 321 321 321 321 321 320 319 318 316 313 310 305 300 296 291 286 281 275 268 263 258 256 254 248 241 237 236 233 230 229 229
265 268 270 270 270 270 272 273 274 276 278 279 280 282 285 288 291 293 294 296 297 298 298 298 299 300 300 301 301 301 302 303 304 304 303 302 302 304 306 309 312 313 315 317 319 321 323 323 323 323 323 323 322 322 321 321 321 321 321 321 320 319 317 314 310 307 303 299 295 290 286 281 275 269 262 256 252 249 245 240 236 234 232 230 229
266 268 269 269 270 272 273 275 276 277 278 280 282 284 288 291 293 294 296 297 297 298 298 299 299 300 301 301 301 302 303 303 303 302 301 301 302 305 307 310 312 313 315 317 319 321 322 322 322 322 323 323 322 322 322 322 321 321 321 321 320 318 316 313 310 307 304 300 297 294 291 286 281 275 269 263 256 250 246 242 238 235 233 231 230
267 268 270 271 273 275 276 276 277 277 279 281 284 287 289 292 293 295 295 296 297 297 297 298 299 300 301 301 301 302 302 301 301 300 300 301 303 306 308 310 312 313 315 317 319 320 320 320 321 322 322 322 322 322 321 321 321 321 321 321 320 318 315 313 310 307 304 301 298 296 293 290 287 282 276 270 263 256 249 244 240 238 235 232 231
268 270 272 275 276 277 276 277 278 278 280 282 285 288 291 293 294 295 295 296 296 296 296 297 298 299 300 300 300 300 300 300 299 300 300 302 304 306 308 309 311 313 315 317 318 319 319 319 320 321 322 321 321 321 321 321 321 321 321 321 320 319 316 313 310 307 304 301 299 296 294 291 289 286 281 276 269 263 256 249 243 240 238 235 233
268 270 273 275 276 277 277 278 279 281 283 286 288 290 292 294 294 295 295 295 295 295 296 296 297 298 298 298 298 298 298 298 299 299 301 303 305 307 308 309 311 313 315 316 317 318 318 319 320 321 321 320 320 321 321 321 321 321 321 321 320 319 316 313 310 307 304 301 299 296 294 291 289 286 283 279 273 267 261 255 249 244 240 237 236
266 268 270 272 275 278 280 282 283 285 287 289 290 291 292 293 293 293 293 293 294 294 295 295 296 296 296 296 297 297 297 297 298 299 301 304 305 307 308 309 311 313 315 316 317 317 317 318 319 320 320 320 321 321 321 321 321 321 321 321 320 318 315 312 310 307 305 303 301 299 296 293 290 286 283 280 276 271 264 258 252 248 243 239 237
263 266 268 270 273 277 280 282 285 287 289 290 291 291 291 291 291 291 291 292 292 293 293 294 294 294 295 295 295 295 295 296 298 300 302 304 306 307 308 310 312 313 314 315 316 316 317 318 319 319 320 320 320 320 320 321 321 321 321 320 319 316 314 312 311 309 307 305 303 301 298 295 292 288 285 281 278 274 269 262 255 250 247 242 238
261 264 266 268 272 275 277 280 283 286 288 289 290 290 290 290 290 290 290 290 291 291 292 292 293 293 293 294 294 294 295 296 298 301 303 305 306 307 309 310 311 312 314 315 315 316 317 318 319 319 319 320 319 320 320 321 321 321 321 319 317 316 314 313 312 311 310 308 305 302 300 297 295 292 288 285 280 276 272 266 260 253 248 245 241
261 263 265 267 271 275 278 281 283 286 287 288 288 289 290 290 290 290 289 289 290 290 291 291 291 292 292 293 293 294 295 297 299 301 303 305 306 308 309 310 311 312 313 314 315 316 317 318 318 318 319 319 319 319 320 321 321 321 320 318 317 316 315 314 314 313 312 310 307 304 302 299 297 295 292 288 284 279 273 268 263 257 251 247 244
261 264 266 269 273 277 281 283 284 285 286 286 287 289 289 290 289 289 289 289 289 289 290 290 291 291 292 292 293 294 295 298 300 302 304 305 306 307 308 309 311 312 313 314 315 316 317 317 317 318 318 318 318 319 320 321 321 320 319 318 317 317 317 316 316 316 314 312 309 306 304 301 298 296 293 291 287 282 277 270 265 260 255 250 246
264 266 269 272 276 280 282 282 283 283 284 285 286 287 287 288 289 289 289 289 289 289 289 290 290 291 291 292 293 295 297 299 301 302 304 305 306 307 308 309 310 312 313 314 315 316 316 316 317 317 318 318 318 320 320 320 320 319 319 319 319 319 319 319 318 318 316 314 311 308 305 302 299 297 294 291 288 284 279 274 268 262 257 252 248
266 268 272 275 278 281 281 280 280 281 281 282 283 285 286 286 288 288 289 289 289 289 289 290 290 291 292 293 294 296 298 299 300 302 303 304 305 306 307 309 310 311 313 314 314 315 315 316 317 317 317 318 319 320 320 319 320 320 319 320 320 320 320 321 320 319 318 315 312 309 307 304 301 298 294 291 288 284 280 275 271 265 260 255 251
267 271 276 279 280 281 281 279 279 280 280 280 282 283 285 286 287 288 288 289 289 289 290 290 291 292 293 294 295 296 297 298 299 300 301 303 304 306 308 309 310 311 313 314 314 315 316 316 317 317 318 319 319 319 319 319 320 320 320 321 321 321 322 322 322 320 318 316 314 311 308 305 302 299 295 291 288 284 280 275 271 267 263 258 254
266 271 274 274 275 277 278 279 280 282 282 282 283 284 285 286 287 287 288 288 289 289 290 290 291 292 292 293 294 295 296 297 298 299 301 303 305 306 308 309 311 312 313 313 314 315 316 316 317 317 318 318 318 318 319 320 321 321 321 322 322 322 323 323 323 321 319 318 316 314 311 308 305 301 298 294 290 285 281 276 271 267 263 260 257
262 263 263 265 271 276 278 280 282 284 284 283 284 285 286 286 287 287 287 287 288 288 289 289 289 290 291 291 292 294 295 296 298 299 301 304 305 307 308 310 311 312 313 314 314 315 316 316 317 317 317 317 318 319 320 321 321 322 322 322 323 323 324 324 324 323 322 321 319 317 315 312 309 305 302 298 293 288 284 279 274 269 264 260 257
260 259 261 266 272 276 277 279 281 282 282 282 283 285 285 286 286 286 286 286 286 286 287 287 287 288 289 290 292 294 295 297 299 301 303 304 306 307 309 310 312 312 313 313 314 315 316 316 316 316 317 318 319 320 321 321 322 322 323 323 323 324 325 326 326 325 324 323 321 320 318 315 312 309 305 301 297 292 287 282 277 273 268 263 259
259 260 262 266 269 271 273 276 278 278 279 280 282 282 283 284 284 284 284 284 285 285 285 285 286 287 288 291 293 294 296 298 300 302 303 304 306 308 310 311 311 312 313 313 314 315 315 315 315 316 318 319 320 320 321 322 322 323 323 323 323 324 326 327 327 327 326 325 323 321 320 318 315 311 308 304 300 296 291 286 281 276 272 268 264
260 261 261 262 264 267 271 274 276 277 278 278 279 280 281 281 281 282 283 283 283 283 284 285 286 287 289 292 294 295 297 299 300 302 303 305 307 308 310 310 311 312 312 313 314 314 314 315 316 318 319 320 320 321 322 322 323 323 323 324 324 325 327 329 329 329 328 327 325 323 321 319 316 313 310 307 303 299 295 291 286 281 277 272 268
263 263 263 264 266 268 272 274 275 276 277 277 277 278 278 278 279 280 281 282 282 283 284 285 286 288 290 292 294 296 297 299 301 302 304 306 307 309 310 310 311 312 312 313 313 314 314 316 317 319 319 320 320 321 322 322 323 323 324 324 324 326 329 330 330 330 330 329 327 325 322 319 316 313 310 308 306 303 299 295 291 287 282 278 273
265 266 266 267 268 270 272 273 274 275 276 276 276 276 276 277 278 280 280 281 282 282 284 285 287 289 291 293 294 296 297 299 301 303 305 306 307 309 310 310 311 311 312 312 313 314 316 317 318 319 320 320 321 321 321 322 323 324 324 325 325 328 330 331 332 332 332 330 329 326 323 319 316 313 310 308 306 304 302 298 295 291 287 284 280
264 266 268 269 270 271 271 272 273 273 274 274 275 275 276 277 279 279 280 280 281 282 284 286 288 290 291 293 294 296 297 299 301 303 305 306 308 309 309 310 310 311 311 312 314 316 317 318 319 319 320 320 320 320 321 322 323 324 325 326 327 329 331 333 333 334 333 332 330 327 323 320 316 313 310 308 305 304 302 300 297 294 291 287 284
266 267 267 267 267 268 269 269 270 271 271 272 273 275 277 279 279 280 280 281 282 284 286 287 289 290 292 293 294 296 298 299 301 303 305 306 307 308 309 309 310 310 311 313 315 317 318 318 319 319 319 319 319 320 321 323 324 325 326 327 328 330 332 334 334 335 334 333 331 328 324 321 318 315 312 309 306 303 301 299 298 296 294 292 289
261 261 260 261 263 266 268 269 271 271 272 273 274 276 277 279 280 281 281 283 284 285 287 288 289 290 291 293 294 296 297 299 301 303 305 306 307 307 308 309 310 311 313 315 316 317 318 318 318 318 318 318 319 320 322 323 324 326 327 328 329 331 333 335 336 336 336 334 332 329 327 324 322 320 317 313 310 306 302 300 297 295 294 293 292
254 256 258 261 264 267 269 271 272 274 275 275 276 277 278 279 280 281 282 284 285 286 287 288 289 290 291 293 294 295 297 299 301 303 305 305 306 307 308 309 311 312 314 315 316 317 318 317 317 317 317 317 318 320 322 324 325 327 329 330 331 332 334 336 337 337 337 336 333 331 328 327 325 323 321 317 314 310 306 303 300 297 295 293 292
254 258 260 262 264 267 269 271 273 275 276 277 277 278 279 280 281 282 283 284 284 285 286 288 289 290 291 292 293 295 298 300 302 303 304 305 306 307 308 310 311 313 314 315 316 317 317 317 316 316 316 317 319 321 323 325 326 328 330 331 332 334 335 337 338 338 338 336 334 332 330 329 327 326 323 320 317 314 311 308 305 303 300 298 295
249 254 256 259 262 265 268 271 272 274 275 276 278 279 280 281 281 282 283 283 284 284 285 286 287 289 290 291 293 296 299 300 302 303 304 304 306 307 309 310 311 312 314 315 316 316 316 316 315 315 316 317 320 322 324 326 327 329 330 332 333 334 336 337 338 338 338 337 334 332 331 330 329 327 325 323 320 317 314 312 310 308 306 304 301
250 253 255 257 260 264 267 269 270 272 274 276 277 279 280 281 282 282 283 283 284 284 284 284 286 288 290 292 294 297 299 300 302 302 303 305 306 307 308 309 311 312 314 315 315 315 315 315 314 315 316 318 320 323 325 326 328 329 331 332 333 335 336 337 338 338 338 337 335 333 331 331 330 328 327 325 322 320 317 315 313 312 310 308 306
258 259 260 260 262 264 267 268 270 272 274 276 278 279 280 281 282 282 282 282 283 283 283 283 285 288 290 292 294 296 298 299 301 302 303 305 305 306 308 309 311 312 313 314 314 314 314 314 314 315 316 318 321 323 325 327 328 329 331 333 334 335 337 338 338 339 339 338 336 333 331 331 330 329 327 326 324 322 319 318 316 314 312 310 308
263 263 263 263 264 265 268 270 271 274 276 279 280 281 281 281 282 282 282 282 282 282 283 283 285 287 289 291 293 295 297 298 300 301 303 304 304 306 307 309 311 312 313 313 313 313 313 314 314 315 316 319 322 324 325 327 328 329 331 333 334 335 337 338 338 339 339 338 336 333 331 330 330 328 327 326 324 322 321 319 317 315 314 312 310
265 266 266 267 268 269 271 272 274 276 279 281 282 282 282 281 281 282 282 282 283 284 285 285 286 287 288 290 293 294 296 298 300 301 302 303 304 305 307 309 310 311 312 312 313 313 313 313 313 315 317 320 322 324 325 326 328 329 331 333 334 335 336 338 338 339 339 338 337 334 331 330 329 328 326 325 324 322 320 319 317 316 314 312 310
266 266 267 269 271 272 273 274 275 277 279 281 281 281 281 280 280 281 281 282 283 285 286 288 288 289 289 291 293 295 296 298 299 300 301 302 304 306 307 309 310 311 311 312 312 312 312 312 313 315 317 320 322 323 324 326 328 329 331 332 333 334 336 337 338 339 338 338 337 334 331 329 328 326 325 324 323 321 319 318 316 315 313 312 310
266 266 267 269 270 272 273 274 275 277 278 279 279 280 280 280 280 279 280 281 283 284 286 287 288 289 290 292 294 295 296 298 298 299 300 302 304 306 307 308 310 310 311 311 311 311 311 311 312 315 318 320 321 322 324 325 327 329 331 332 333 334 335 336 338 338 338 338 336 334 331 328 326 325 324 322 321 320 318 317 316 314 313 311 310
268 268 269 269 270 272 273 274 275 276 277 278 278 279 279 280 279 279 279 280 282 283 284 285 286 288 290 292 294 295 295 296 297 298 300 302 304 306 307 308 309 310 310 310 310 309 310 311 313 315 318 320 321 322 323 325 327 329 330 332 332 333 334 335 337 337 337 337 336 334 331 327 324 323 322 320 318 317 316 315 314 313 312 310 309
267 268 269 270 271 272 273 274 275 275 276 277 278 279 279 279 279 278 279 280 281 282 282 283 285 287 290 291 293 293 294 295 296 298 300 302 304 305 307 308 308 308 308 309 309 309 310 311 314 316 318 319 320 322 323 325 327 328 330 331 332 332 333 334 335 336 336 336 335 334 331 326 323 321 320 318 316 314 313 313 312 311 310 309 308
266 267 268 269 270 271 272 273 274 274 275 276 277 278 279 278 278 277 278 279 280 280 280 282 284 287 289 290 291 292 293 294 295 297 299 301 303 305 306 307 306 305 306 309 311 311 312 313 315 316 318 319 321 323 325 326 327 328 329 330 330 331 331 332 334 335 335 335 334 333 330 326 322 319 318 316 314 313 312 311 310 310 308 307 307
262 263 264 265 267 268 269 270 271 273 274 275 276 276 276 276 276 276 276 276 278 279 280 282 284 286 288 289 290 291 292 293 295 297 299 301 303 304 305 305 304 305 308 312 314 315 315 315 316 317 319 321 323 325 326 327 328 328 328 329 329 329 330 330 332 333 333 333 333 332 330 326 321 317 316 314 313 311 311 310 309 308 307 306 305
261 261 261 262 263 264 265 267 269 271 272 273 273 273 273 274 275 275 275 276 278 279 281 283 284 285 287 288 289 289 291 292 295 297 299 300 302 304 305 304 303 305 309 314 316 316 316 316 317 318 320 322 323 324 325 326 327 327 328 328 328 328 328 329 330 331 331 332 332 331 329 326 321 316 313 312 311 309 309 308 307 306 305 304 304
260 259 260 261 261 262 263 264 266 268 269 269 270 271 272 273 274 275 276 277 278 279 281 282 284 285 286 287 288 289 290 293 295 297 298 300 302 304 304 303 303 306 310 314 315 316 316 316 317 319 320 321 322 322 323 324 325 326 326 326 327 327 326 327 328 329 329 330 330 329 328 325 320 315 311 309 308 307 306 306 305 305 304 304 303
256 256 256 257 258 260 262 263 264 265 266 266 267 268 270 272 273 274 276 277 278 280 281 282 283 284 285 286 288 289 291 293 295 296 298 300 302 303 303 302 303 307 311 313 315 316 316 316 317 319 320 320 319 320 320 322 323 324 325 325 325 325 325 325 326 327 327 328 328 327 326 323 319 314 309 307 306 305 304 304 304 303 303 303 303
252 251 251 252 254 259 263 264 264 264 265 265 266 267 269 271 272 274 275 276 278 279 281 282 283 284 285 286 288 289 291 293 294 296 298 300 301 302 302 302 305 308 311 312 314 315 315 316 317 318 318 318 317 317 318 320 321 322 323 324 324 324 323 323 324 325 326 326 326 325 324 321 318 313 308 305 304 303 302 302 302 302 302 302 302
247 244 245 249 254 259 263 265 265 266 266 266 266 267 268 270 272 273 275 276 278 279 280 281 282 284 285 286 288 289 291 292 294 296 297 299 300 301 301 303 306 309 310 311 312 313 314 315 316 317 316 315 315 315 316 318 319 320 321 322 322 322 322 322 322 322 323 324 324 323 321 319 316 312 307 304 303 302 301 300 300 300 301 301 301
244 239 238 242 247 253 258 262 266 268 268 267 267 267 267 269 272 274 276 277 278 279 280 281 282 283 284 286 288 289 291 293 294 295 296 297 299 300 302 304 306 308 308 309 310 311 313 314 315 314 314 313 313 314 315 316 317 318 319 320 320 320 320 320 320 320 321 322 321 320 319 317 314 310 306 303 302 301 300 300 299 299 300 300 300
247 242 239 238 240 244 249 254 258 262 265 267 268 268 269 271 273 274 276 277 278 279 280 281 282 283 284 286 288 290 292 293 293 294 295 297 299 300 302 304 305 306 307 308 309 310 312 313 312 311 311 312 312 313 314 315 316 317 318 318 318 318 318 318 318 318 319 319 319 318 317 314 311 308 304 301 300 300 300 299 299 298 298 298 299
248 245 241 239 239 242 245 248 252 256 260 264 268 272 273 274 274 274 275 276 277 278 279 280 282 283 285 287 289 290 292 292 293 294 296 297 298 300 301 303 304 304 305 306 308 309 310 310 309 309 310 310 311 312 312 313 314 315 316 316 316 316 316 316 316 316 317 317 316 315 314 312 309 305 302 300 300 299 299 299 299 298 298 297 297
249 247 243 241 241 243 247 251 255 258 260 263 267 270 273 274 275 276 277 278 279 279 280 281 283 284 286 288 290 291 291 292 293 294 296 297 298 299 301 302 302 303 304 305 307 307 307 307 307 308 309 309 310 311 311 312 313 314 314 314 314 314 314 314 315 315 315 315 314 313 311 309 306 303 300 299 298 298 297 297 298 297 297 297 297
249 249 247 246 246 249 252 256 260 262 263 264 265 267 269 272 275 276 277 278 280 281 282 283 285 286 288 289 290 291 291 292 292 294 295 296 297 298 300 300 301 302 303 304 304 305 305 305 306 307 308 308 309 310 310 311 312 312 312 312 312 312 312 313 313 313 313 312 312 311 309 307 304 302 300 298 297 296 295 295 295 295 295 295 296
249 250 251 252 254 256 259 261 262 264 265 265 266 267 270 272 275 276 277 279 280 282 283 284 286 287 288 289 289 290 290 291 292 293 294 295 297 298 298 299 299 300 301 302 302 303 304 304 305 306 307 308 308 309 309 310 310 310 310 310 310 310 310 311 311 310 310 310 309 308 307 305 303 301 300 299 297 297 296 295 295 294 295 295 295
Height
10701 10702 10702 10702 10702 10701 10702 10703 10703 10704 10704 10704 10704 10703 10701 10700 10699 10698 10699 10698 10696 10695 10694 10693 10692 10691 10689 10688 10686 10684 10681 10679 10676 10675 10673 10671 10669 10666 10662 10658 10656 10652 10649 10646 10643 10640 10637 10633 10629 10625 10621 10617 10613 10609 10605 10601 10598 10594 10589 10585 10582 10578 10575 10572 10569 10566 10563 10561 10559 10558 10557 10557 10556 10557 10558 10558 10558 10558 10559 10561 10562 10563 10565 10567 10569
10697 10698 10698 10698 10697 10697 10697 10698 10699 10699 10699 10699 10699 10697 10696 10695 10694 10694 10694 10693 10691 10690 10689 10687 10685 10684 10684 10683 10681 10679 10676 10673 10670 10669 10667 10665 10663 10661 10657 10653 10651 10647 10644 10641 10638 10634 10631 10626 10622 10618 10614 10610 10607 10603 10599 10595 10592 10588 10584 10580 10575 10572 10568 10565 10563 10560 10558 10555 10554 10552 10551 10551 10550 10550 10550 10551 10551 10551 10552 10554 10555 10557 10558 10560 10562
10693 10693 10693 10693 10693 10693 10693 10693 10694 10694 10694 10694 10693 10692 10691 10689 10689 10689 10689 10688 10686 10685 10683 10680 10679 10678 10678 10678 10676 10674 10671 10668 10665 10663 10661 10659 10657 10654 10651 10648 10646 10642 10639 10635 10632 10628 10624 10620 10616 10612 10608 10605 10601 10597 10593 10589 10585 10581 10577 10573 10569 10565 10562 10559 10556 10554 10551 10549 10547 10546 10544 10544 10544 10543 10542 10542 10542 10543 10545 10546 10547 10549 10551 10552 10554
10689 10689 10689 10689 10689 10689 10689 10689 10689 10689 10689 10689 10688 10687 10685 10684 10684 10685 10684 10683 10681 10680 10677 10675 10674 10673 10672 10672 10670 10668 10666 10663 10661 10658 10655 10652 10650 10648 10645 10642 10639 10636 10633 10630 10627 10623 10619 10614 10611 10607 10603 10599 10595 10590 10586 10583 10579 10575 10571 10566 10563 10559 10555 10552 10549 10547 10545 10543 10540 10539 10537 10536 10535 10535 10535 10534 10533 10533 10535 10537 10538 10540 10542 10544 10545
10684 10684 10684 10684 10684 10684 10684 10684 10684 10684 10684 10683 10683 10682 10680 10679 10680 10680 10678 10677 10676 10675 10672 10670 10669 10668 10667 10665 10664 10663 10661 10659 10657 10654 10651 10647 10644 10642 10640 10637 10633 10630 10627 10624 10621 10617 10613 10609 10605 10601 10597 10592 10588 10584 10580 10576 10572 10568 10564 10560 10556 10552 10549 10545 10543 10540 10538 10536 10534 10532 10531 10529 10528 10526 10526 10525 10525 10524 10524 10526 10528 10530 10532 10535 10536
10679 10679 10679 10679 10679 10679 10679 10679 10678 10679 10679 10678 10677 10676 10675 10674 10674 10673 10673 10672 10670 10669 10667 10666 10664 10663 10661 10659 10658 10657 10655 10654 10652 10649 10646 10642 10639 10636 10633 10631 10628 10624 10621 10618 10615 10611 10607 10603 10599 10595 10590 10585 10581 10577 10573 10569 10565 10561 10557 10553 10549 10546 10542 10539 10536 10534 10532 10530 10528 10525 10523 10522 10520 10519 10517 10516 10515 10515 10515 10515 10516 10518 10521 10524 10526
10674 10674 10674 10674 10675 10674 10674 10674 10674 10674 10673 10673 10672 10670 10669 10669 10668 10667 10667 10666 10665 10664 10663 10661 10659 10657 10655 10653 10652 10651 10650 10648 10646 10644 10641 10637 10633 10630 10627 10624 10622 10618 10615 10612 10609 10605 10601 10598 10593 10588 10584 10579 10575 10570 10566 10562 10558 10554 10550 10546 10542 10539 10535 10532 10529 10527 10524 10522 10520 10518 10515 10513 10511 10510 10508 10507 10505 10505 10505 10505 10505 10507 10510 10513 10515
10669 10670 10670 10670 10670 10670 10670 10670 10669 10668 10668 10668 10667 10665 10664 10664 10663 10662 10662 10661 10661 10659 10658 10656 10654 10652 10650 10648 10647 10646 10645 10643 10641 10638 10635 10631 10628 10625 10621 10619 10616 10613 10610 10606 10603 10599 10595 10592 10587 10582 10578 10573 10569 10564 10560 10556 10551 10547 10543 10539 10535 10531 10528 10525 10522 10519 10516 10514 10512 10510 10507 10504 10502 10499 10498 10497 10496 10494 10494 10495 10496 10497 10499 10502 10505
10665 10666 10666 10666 10666 10666 10666 10666 10664 10663 10662 10662 10661 10660 10659 10658 10657 10656 10656 10656 10655 10654 10652 10651 10649 10647 10645 10643 10642 10641 10639 10637 10635 10633 10629 10626 10623 10619 10616 10613 10610 10607 10604 10600 10597 10593 10589 10585 10580 10576 10571 10567 10562 10558 10553 10549 10544 10540 10536 10532 10528 10524 10521 10517 10514 10511 10508 10505 10502 10500 10497 10495 10492 10489 10486 10484 10484 10484 10484 10484 10485 10486 10488 10491 10494
10661 10661 10661 10661 10662 10662 10662 10661 10659 10658 10657 10656 10656 10655 10654 10654 10652 10652 10651 10651 10650 10649 10647 10645 10644 10642 10640 10638 10637 10635 10634 10632 10630 10627 10624 10621 10617 10614 10610 10607 10604 10601 10598 10594 10590 10586 10582 10578 10573 10569 10564 10560 10555 10551 10547 10542 10538 10533 10529 10524 10520 10517 10513 10510 10506 10503 10499 10496 10492 10488 10485 10482 10480 10478 10475 10473 10471 10471 10471 10472 10473 10475 10477 10479 10482
10657 10657 10657 10657 10658 10657 10656 10655 10654 10653 10652 10651 10650 10650 10650 10649 10648 10647 10646 10646 10645 10643 10642 10640 10639 10637 10635 10633 10632 10630 10628 10626 10624 10621 10618 10615 10612 10608 10605 10601 10598 10595 10591 10588 10584 10580 10575 10571 10566 10562 10557 10553 10548 10544 10540 10536 10531 10527 10522 10517 10512 10509 10505 10502 10498 10494 10490 10486 10481 10477 10473 10470 10467 10466 10464 10463 10461 10460 10459 10460 10461 10463 10465 10467 10470
10652 10653 10653 10653 10653 10652 10651 10650 10649 10648 10647 10646 10645 10645 10644 10644 10643 10642 10642 10640 10639 10638 10637 10635 10634 10632 10630 10628 10626 10625 10623 10620 10618 10615 10613 10610 10606 10603 10599 10596 10592 10589 10586 10582 10578 10574 10569 10564 10559 10555 10551 10547 10542 10538 10534 10529 10525 10520 10516 10511 10505 10501 10497 10494 10490 10486 10481 10476 10471 10466 10462 10458 10455 10454 10453 10452 10451 10450 10449 10449 10449 10451 10453 10455 10458
10647 10648 10648 10648 10647 10646 10646 10645 10644 10643 10642 10641 10640 10639 10639 10639 10638 10638 10637 10636 10635 10634 10632 10630 10628 10627 10625 10623 10621 10619 10617 10615 10612 10609 10607 10604 10600 10597 10594 10590 10587 10584 10580 10576 10572 10567 10563 10558 10553 10549 10544 10540 10536 10532 10527 10523 10518 10514 10509 10504 10499 10494 10489 10485 10482 10478 10472 10467 10462 10457 10452 10448 10445 10442 10441 10440 10440 10439 10439 10439 10439 10439 10441 10443 10446
10642 10642 10642 10641 10641 10640 10640 10639 10639 10638 10637 10635 10634 10634 10634 10633 10633 10633 10632 10631 10630 10628 10627 10625 10623 10621 10620 10618 10616 10614 10612 10609 10606 10603 10601 10598 10595 10591 10588 10585 10582 10578 10574 10570 10566 10561 10556 10552 10547 10543 10538 10534 10530 10526 10521 10516 10512 10508 10503 10498 10492 10487 10481 10476 10473 10469 10464 10458 10453 10448 10443 10439 10436 10433 10431 10429 10429 10428 10429 10429 10429 10429 10430 10432 10435
10637 10637 10636 10635 10634 10634 10634 10634 10634 10633 10631 10630 10630 10630 10629 10628 10628 10628 10627 10626 10625 10623 10621 10620 10618 10616 10614 10612 10610 10609 10606 10603 10600 10597 10595 10592 10589 10586 10583 10579 10576 10572 10568 10564 10559 10555 10550 10546 10541 10537 10532 10528 10524 10519 10515 10510 10506 10501 10497 10492 10486 10480 10474 10467 10462 10459 10455 10449 10443 10439 10435 10431 10427 10425 10422 10420 10419 10419 10418 10419 10419 10420 10421 10422 10424
10633 10632 10630 10628 10628 10628 10628 10628 10628 10626 10626 10625 10625 10625 10624 10623 10623 10623 10622 10621 10619 10617 10616 10614 10612 10611 10609 10607 10605 10603 10600 10597 10594 10592 10589 10587 10584 10580 10577 10573 10570 10566 10562 10557 10553 10548 10544 10539 10535 10530 10526 10522 10518 10513 10509 10504 10500 10495 10490 10485 10480 10474 10469 10462 10454 10450 10446 10441 10435 10430 10426 10422 10419 10416 10414 10412 10411 10410 10410 10409 10410 10411 10412 10413 10414
10630 10628 10624 10621 10621 10621 10621 10622 10622 10620 10620 10620 10620 10619 10618 10618 10618 10617 10616 10615 10613 10612 10610 10608 10607 10605 10603 10601 10599 10597 10595 10592 10589 10586 10584 10581 10578 10575 10571 10567 10563 10559 10555 10551 10546 10542 10537 10533 10528 10524 10520 10516 10511 10507 10503 10498 10494 10488 10483 10479 10474 10469 10463 10457 10449 10442 10438 10434 10428 10422 10418 10415 10412 10408 10406 10404 10403 10402 10402 10402 10401 10402 10402 10404 10405
10626 10625 10620 10615 10615 10615 10615 10615 10615 10615 10615 10614 10613 10613 10613 10613 10612 10611 10610 10609 10607 10606 10604 10602 10601 10599 10597 10595 10593 10591 10589 10586 10583 10581 10579 10576 10572 10569 10565 10561 10557 10553 10549 10544 10540 10535 10531 10527 10522 10518 10514 10510 10505 10501 10497 10492 10487 10482 10477 10472 10467 10462 10457 10452 10445 10437 10430 10426 10421 10415 10411 10408 10405 10402 10398 10397 10395 10394 10394 10394 10394 10394 10394 10395 10396
10621 10619 10615 10611 10610 10610 10610 10609 10609 10609 10610 10609 10607 10607 10607 10607 10606 10605 10604 10603 10601 10600 10598 10597 10595 10593 10591 10589 10588 10586 10583 10580 10578 10576 10573 10570 10566 10563 10559 10555 10551 10547 10542 10538 10534 10530 10525 10521 10516 10512 10508 10504 10499 10495 10491 10486 10481 10476 10471 10466 10461 10456 10450 10445 10439 10431 10424 10419 10414 10409 10404 10400 10398 10395 10393 10390 10389 10388 10387 10386 10386 10386 10387 10387 10388
10614 10613 10611 10608 10606 10604 10604 10604 10604 10605 10604 10603 10602 10602 10602 10601 10600 10599 10598 10596 10595 10594 10592 10591 10589 10587 10586 10584 10583 10580 10577 10574 10572 10570 10567 10564 10560 10556 10553 10549 10545 10541 10537 10532 10528 10524 10520 10516 10511 10507 10502 10498 10493 10489 10485 10480 10475 10470 10465 10460 10455 10449 10444 10438 10432 10425 10418 10412 10408 10404 10399 10394 10391 10389 10387 10385 10383 10382 10381 10380 10379 10379 10379 10380 10380
10608 10608 10607 10604 10601 10599 10598 10599 10600 10600 10599 10598 10598 10597 10596 10595 10594 10593 10591 10590 10589 10588 10586 10585 10583 10582 10580 10579 10577 10574 10571 10568 10566 10563 10561 10558 10554 10551 10547 10543 10539 10535 10531 10527 10523 10519 10515 10511 10506 10501 10497 10492 10488 10483 10479 10474 10470 10465 10460 10454 10449 10444 10438 10432 10426 10420 10414 10408 10402 10398 10395 10390 10386 10383 10381 10380 10378 10377 10375 10374 10373 10373 10372 10373 10373
10603 10604 10602 10599 10597 10596 10595 10595 10595 10594 10593 10593 10593 10592 10591 10590 10588 10587 10585 10584 10583 10582 10580 10579 10577 10576 10575 10573 10571 10568 10564 10562 10559 10557 10554 10551 10548 10545 10541 10537 10533 10530 10526 10522 10518 10514 10510 10505 10501 10496 10491 10486 10482 10477 10473 10469 10464 10459 10454 10449 10444 10439 10433 10427 10421 10415 10409 10403 10398 10393 10390 10387 10383 10379 10376 10374 10373 10372 10371 10369 10368 10367 10366 10366 10366
10598 10598 10596 10593 10593 10593 10592 10591 10589 10588 10588 10587 10586 10586 10585 10583 10582 10581 10579 10578 10577 10576 10574 10572 10571 10570 10569 10567 10565 10561 10558 10556 10553 10550 10548 10545 10541 10538 10535 10531 10528 10524 10520 10516 10512 10508 10504 10499 10495 10490 10486 10481 10476 10472 10468 10463 10459 10454 10449 10444 10439 10434 10428 10422 10415 10410 10404 10399 10394 10389 10386 10383 10380 10377 10373 10370 10368 10367 10366 10365 10363 10362 10361 10361 10360
10591 10589 10587 10586 10587 10588 10586 10584 10582 10582 10582 10581 10580 10579 10578 10576 10575 10574 10573 10572 10570 10569 10568 10566 10565 10564 10562 10560 10558 10555 10553 10550 10547 10544 10542 10538 10535 10532 10529 10525 10522 10518 10514 10511 10507 10503 10498 10493 10489 10485 10480 10476 10471 10467 10463 10458 10454 10450 10445 10439 10434 10428 10423 10417 10410 10405 10399 10394 10389 10385 10382 10379 10377 10374 10371 10368 10365 10363 10362 10360 10359 10358 10357 10356 10355
10581 10580 10579 10579 10581 10581 10579 10577 10576 10575 10575 10574 10573 10573 10571 10569 10568 10568 10566 10565 10564 10563 10562 10561 10559 10557 10555 10554 10552 10549 10547 10544 10541 10538 10535 10532 10529 10526 10523 10520 10516 10512 10509 10505 10501 10497 10492 10488 10484 10479 10475 10471 10466 10462 10458 10454 10450 10445 10440 10434 10429 10423 10417 10412 10406 10400 10395 10390 10385 10381 10378 10375 10373 10370 10368 10365 10363 10360 10358 10357 10355 10353 10352 10352 10351
10573 10574 10574 10573 10573 10573 10572 10570 10570 10569 10568 10568 10567 10566 10564 10562 10562 10561 10559 10558 10558 10557 10556 10554 10552 10550 10548 10547 10546 10543 10541 10538 10535 10533 10530 10527 10523 10520 10517 10514 10510 10507 10503 10499 10495 10491 10487 10483 10478 10474 10470 10466 10462 10458 10454 10449 10445 10440 10435 10429 10424 10418 10413 10407 10401 10396 10391 10386 10382 10378 10374 10371 10369 10366 10364 10362 10360 10357 10355 10353 10352 10350 10348 10347 10346
10567 10568 10567 10565 10566 10566 10566 10565 10564 10563 10563 10562 10561 10559 10557 10556 10555 10555 10553 10552 10552 10551 10549 10548 10546 10544 10542 10541 10539 10537 10535 10532 10530 10527 10524 10521 10518 10515 10511 10508 10505 10501 10497 10493 10490 10486 10481 10477 10473 10469 10465 10461 10457 10454 10449 10445 10441 10436 10430 10425 10419 10414 10408 10402 10396 10391 10386 10382 10378 10374 10371 10367 10364 10362 10360 10357 10355 10354 10352 10350 10349 10347 10346 10343 10341
10562 10560 10559 10559 10560 10560 10559 10559 10558 10557 10556 10555 10554 10552 10551 10550 10549 10548 10547 10546 10545 10544 10542 10541 10539 10537 10536 10535 10532 10530 10529 10526 10524 10521 10518 10515 10512 10509 10505 10502 10499 10495 10491 10488 10484 10480 10476 10472 10468 10464 10460 10457 10453 10449 10445 10440 10436 10431 10426 10420 10414 10409 10403 10397 10392 10387 10382 10377 10374 10370 10367 10364 10361 10358 10355 10353 10351 10349 10347 10346 10345 10344 10343 10341 10339
10556 10554 10553 10553 10554 10553 10553 10552 10551 10550 10549 10548 10547 10546 10545 10544 10543 10541 10540 10539 10538 10537 10536 10534 10532 10531 10530 10528 10526 10524 10522 10520 10517 10515 10512 10508 10506 10503 10499 10496 10493 10489 10486 10482 10479 10475 10471 10467 10463 10459 10456 10452 10449 10445 10440 10436 10431 10426 10421 10416 10410 10405 10399 10394 10388 10383 10379 10374 10370 10367 10364 10360 10357 10355 10352 10349 10347 10345 10343 10341 10340 10339 10338 10338 10336
10550 10548 10547 10547 10547 10547 10546 10545 10544 10543 10542 10541 10540 10540 10539 10538 10536 10535 10533 10532 10531 10530 10529 10527 10526 10525 10524 10522 10519 10518 10516 10513 10511 10508 10505 10502 10499 10496 10493 10490 10487 10484 10480 10477 10473 10469 10465 10462 10458 10454 10451 10448 10444 10440 10436 10431 10427 10422 10417 10412 10407 10401 10396 10391 10386 10381 10376 10371 10367 10364 10360 10357 10354 10351 10349 10346 10344 10342 10339 10337 10336 10335 10334 10333 10331
10544 10543 10542 10541 10541 10540 10540 10539 10538 10537 10536 10535 10534 10533 10532 10531 10530 10528 10527 10526 10524 10523 10522 10521 10519 10518 10517 10515 10513 10511 10509 10507 10505 10502 10499 10496 10493 10490 10487 10484 10481 10478 10475 10471 10467 10464 10460 10457 10453 10450 10446 10443 10439 10435 10431 10427 10422 10418 10413 10408 10403 10398 10392 10387 10382 10377 10372 10368 10364 10360 10357 10354 10351 10348 10346 10343 10341 10338 10336 10334 10332 10331 10330 10328 10327
10536 10536 10535 10534 10534 10533 10533 10532 10531 10530 10530 10529 10528 10527 10526 10525 10524 10522 10520 10519 10518 10517 10516 10514 10513 10511 10510 10509 10507 10505 10503 10501 10498 10495 10492 10490 10487 10484 10482 10479 10475 10472 10469 10465 10462 10459 10455 10452 10448 10445 10441 10438 10434 10431 10427 10422 10418 10414 10409 10404 10399 10394 10389 10383 10378 10374 10369 10365 10361 10357 10354 10351 10348 10345 10342 10340 10338 10335 10333 10331 10329 10327 10326 10325 10323
10527 10527 10526 10526 10526 10526 10526 10525 10525 10524 10524 10523 10522 10521 10520 10519 10517 10516 10514 10512 10511 10510 10509 10508 10507 10505 10504 10502 10500 10499 10497 10494 10492 10489 10487 10484 10481 10479 10476 10473 10470 10467 10463 10460 10457 10453 10450 10447 10443 10440 10437 10433 10430 10426 10422 10418 10414 10409 10405 10400 10395 10390 10385 10380 10375 10370 10366 10361 10358 10354 10351 10347 10344 10342 10339 10337 10334 10332 10330 10328 10326 10324 10322 10321 10319
10519 10519 10518 10518 10519 10519 10519 10518 10518 10518 10517 10517 10516 10514 10512 10511 10510 10509 10507 10505 10505 10504 10502 10501 10500 10499 10497 10496 10494 10492 10490 10488 10486 10483 10481 10478 10476 10473 10470 10467 10464 10461 10458 10454 10451 10448 10444 10441 10438 10435 10432 10429 10425 10421 10417 10413 10409 10405 10401 10396 10392 10387 10382 10377 10372 10367 10363 10358 10354 10351 10347 10344 10341 10338 10336 10334 10331 10329 10327 10325 10323 10321 10319 10317 10316
10512 10511 10510 10511 10512 10512 10511 10511 10511 10511 10510 10509 10508 10507 10505 10504 10503 10501 10500 10499 10498 10497 10496 10495 10493 10492 10490 10489 10488 10486 10484 10482 10480 10477 10475 10473 10470 10467 10464 10461 10458 10455 10452 10449 10446 10442 10439 10436 10433 10430 10427 10424 10420 10417 10413 10409 10404 10400 10396 10392 10388 10383 10378 10373 10369 10364 10359 10355 10351 10347 10344 10341 10338 10336 10333 10331 10328 10326 10324 10322 10320 10318 10316 10314 10312
10503 10504 10504 10504 10505 10505 10504 10504 10503 10503 10502 10501 10500 10499 10498 10497 10495 10494 10493 10493 10492 10491 10490 10488 10487 10485 10484 10483 10481 10479 10478 10476 10474 10471 10469 10467 10464 10461 10458 10455 10453 10449 10446 10443 10440 10437 10434 10431 10428 10425 10422 10419 10415 10412 10408 10404 10400 10396 10392 10388 10383 10379 10374 10370 10365 10361 10356 10352 10348 10344 10341 10338 10335 10332 10330 10327 10325 10323 10321 10319 10317 10315 10313 10311 10309
10494 10495 10496 10496 10497 10497 10496 10495 10495 10495 10494 10493 10493 10492 10491 10489 10488 10487 10486 10486 10486 10485 10484 10482 10481 10479 10478 10476 10475 10473 10471 10469 10468 10466 10463 10461 10459 10456 10453 10450 10447 10444 10441 10438 10435 10432 10429 10426 10423 10420 10417 10414 10410 10407 10403 10399 10395 10391 10387 10383 10379 10375 10371 10366 10362 10357 10353 10349 10345 10341 10337 10334 10332 10329 10327 10324 10322 10320 10318 10316 10314 10312 10310 10308 10305
10488 10487 10487 10487 10488 10488 10486 10486 10486 10486 10485 10485 10485 10485 10484 10482 10480 10480 10480 10480 10479 10478 10477 10476 10474 10473 10472 10470 10469 10467 10465 10463 10462 10460 10458 10455 10453 10450 10447 10444 10441 10438 10435 10432 10429 10426 10423 10421 10418 10415 10412 10409 10405 10402 10398 10394 10390 10386 10382 10378 10375 10371 10367 10362 10358 10354 10349 10345 10341 10337 10334 10331 10328 10325 10323 10321 10319 10316 10314 10312 10310 10308 10306 10304 10302
10482 10480 10480 10480 10480 10479 10478 10478 10478 10478 10477 10478 10478 10478 10476 10474 10473 10473 10473 10473 10472 10471 10470 10469 10468 10467 10466 10464 10463 10461 10459 10458 10456 10454 10452 10450 10447 10444 10441 10439 10436 10433 10430 10427 10424 10421 10418 10415 10412 10410 10407 10403 10400 10396 10393 10389 10385 10381 10377 10373 10369 10366 10362 10358 10354 10350 10346 10342 10338 10334 10330 10327 10324 10321 10319 10317 10315 10313 10310 10309 10307 10305 10303 10301 10299
10473 10472 10472 10471 10471 10470 10470 10469 10470 10470 10470 10471 10471 10470 10468 10467 10466 10466 10466 10466 10466 10465 10463 10463 10462 10461 10459 10458 10457 10455 10453 10452 10450 10448 10446 10444 10441 10438 10436 10433 10430 10427 10424 10421 10418 10415 10413 10410 10407 10404 10401 10398 10394 10391 10387 10384 10380 10376 10372 10368 10364 10360 10357 10353 10349 10345 10341 10338 10334 10330 10326 10322 10319 10317 10314 10312 10310 10308 10306 10304 10303 10301 10299 10297 10295
10464 10464 10463 10463 10463 10462 10462 10462 10463 10463 10463 10463 10463 10462 10461 10460 10460 10460 10460 10460 10459 10458 10457 10456 10456 10454 10453 10452 10451 10449 10447 10445 10444 10442 10440 10437 10435 10433 10430 10427 10425 10421 10418 10415 10412 10410 10407 10404 10401 10398 10395 10392 10388 10385 10382 10378 10374 10371 10367 10363 10358 10355 10351 10348 10344 10341 10337 10333 10329 10326 10322 10318 10315 10312 10310 10307 10305 10303 10302 10300 10298 10296 10294 10293 10291
10454 10455 10454 10454 10454 10454 10454 10455 10456 10456 10456 10456 10456 10454 10454 10453 10453 10453 10453 10454 10453 10452 10451 10450 10449 10448 10447 10446 10444 10442 10441 10439 10437 10436 10433 10431 10429 10426 10424 10421 10418 10415 10412 10409 10406 10404 10401 10398 10395 10392 10389 10385 10382 10379 10375 10372 10369 10365 10361 10357 10353 10349 10345 10342 10339 10336 10332 10328 10324 10321 10317 10313 10310 10307 10305 10303 10301 10298 10297 10295 10293 10291 10290 10288 10286
10445 10446 10446 10447 10447 10447 10447 10448 10449 10450 10449 10449 10449 10448 10447 10446 10446 10447 10447 10447 10447 10446 10445 10444 10443 10442 10441 10439 10438 10436 10434 10432 10431 10429 10426 10424 10422 10420 10417 10415 10412 10408 10405 10402 10400 10397 10394 10391 10388 10385 10382 10379 10376 10372 10369 10365 10362 10359 10355 10351 10347 10343 10339 10335 10332 10329 10326 10322 10319 10315 10312 10309 10305 10302 10300 10298 10296 10293 10292 10290 10288 10286 10285 10283 10281
10438 10438 10439 10440 10441 10440 10440 10441 10442 10442 10442 10442 10442 10441 10441 10440 10440 10440 10441 10441 10441 10440 10439 10437 10436 10435 10434 10433 10431 10429 10428 10426 10424 10422 10419 10417 10415 10413 10411 10408 10404 10401 10398 10396 10393 10390 10387 10384 10381 10378 10376 10373 10370 10366 10363 10359 10355 10352 10349 10345 10341 10337 10333 10329 10326 10323 10320 10316 10313 10309 10306 10303 10300 10297 10294 10292 10290 10288 10286 10284 10283 10281 10279 10278 10276
10431 10432 10433 10435 10436 10435 10435 10435 10435 10435 10435 10435 10434 10434 10434 10433 10433 10433 10434 10435 10435 10434 10432 10431 10429 10428 10427 10426 10424 10423 10421 10419 10417 10414 10412 10410 10408 10406 10404 10400 10397 10394 10391 10389 10386 10383 10380 10377 10374 10371 10368 10366 10363 10360 10356 10353 10349 10345 10342 10338 10335 10331 10327 10322 10319 10315 10313 10311 10307 10303 10299 10296 10293 10290 10288 10286 10284 10283 10281 10279 10277 10275 10274 10272 10270
10424 10425 10426 10428 10429 10429 10430 10430 10430 10429 10428 10427 10427 10426 10427 10427 10427 10426 10427 10428 10428 10428 10426 10424 10422 10421 10420 10419 10417 10416 10414 10411 10409 10407 10405 10403 10401 10398 10396 10392 10389 10386 10384 10382 10379 10376 10373 10370 10367 10364 10361 10359 10355 10352 10348 10346 10343 10339 10335 10332 10329 10325 10321 10316 10312 10307 10305 10302 10300 10297 10293 10290 10286 10283 10281 10279 10277 10276 10275 10273 10272 10270 10268 10266 10264
10417 10418 10419 10420 10421 10422 10423 10424 10423 10422 10420 10420 10419 10418 10419 10421 10421 10420 10419 10420 10420 10420 10419 10416 10414 10414 10413 10411 10410 10408 10406 10404 10402 10400 10398 10395 10393 10390 10387 10385 10382 10379 10377 10374 10371 10368 10365 10362 10359 10357 10354 10352 10349 10345 10341 10338 10334 10331 10327 10324 10321 10318 10315 10311 10306 10302 10298 10295 10292 10289 10286 10283 10279 10276 10274 10272 10270 10269 10267 10266 10265 10264 10262 10260 10258
10410 10411 10412 10413 10414 10414 10414 10414 10414 10414 10414 10413 10412 10410 10411 10412 10413 10412 10412 10412 10412 10412 10411 10409 10407 10406 10405 10404 10402 10401 10399 10396 10394 10391 10389 10387 10385 10382 10379 10377 10374 10372 10369 10366 10363 10360 10357 10354 10351 10348 10346 10343 10341 10338 10334 10331 10327 10323 10319 10316 10313 10309 10306 10302 10299 10295 10291 10288 10285 10282 10279 10276 10273 10270 10267 10265 10263 10261 10260 10258 10257 10256 10255 10253 10251
10403 10403 10404 10405 10406 10406 10406 10406 10407 10408 10408 10407 10406 10404 10403 10403 10404 10405 10404 10403 10403 10404 10403 10402 10400 10398 10397 10396 10394 10392 10390 10388 10386 10383 10381 10379 10376 10373 10371 10369 10366 10364 10361 10358 10355 10352 10349 10346 10343 10340 10337 10334 10331 10328 10325 10323 10319 10315 10311 10308 10304 10301 10297 10294 10290 10286 10282 10279 10276 10273 10271 10268 10265 10263 10261 10259 10257 10255 10253 10251 10249 10248 10247 10245 10243
10395 10395 10397 10398 10399 10399 10399 10400 10401 10402 10401 10400 10399 10397 10396 10396 10398 10397 10396 10396 10395 10395 10395 10394 10392 10390 10389 10387 10385 10383 10382 10380 10378 10375 10373 10370 10368 10365 10363 10361 10358 10355 10352 10349 10347 10344 10341 10338 10334 10331 10328 10325 10321 10318 10315 10313 10310 10306 10303 10299 10295 10292 10288 10285 10281 10278 10274 10271 10268 10265 10262 10259 10257 10255 10253 10251 10250 10248 10246 10245 10243 10241 10240 10238 10236
10387 10388 10389 10391 10392 10392 10393 10394 10394 10394 10394 10393 10392 10390 10389 10390 10391 10391 10389 10388 10387 10387 10386 10386 10384 10382 10380 10378 10377 10375 10373 10371 10369 10367 10364 10362 10359 10357 10355 10352 10349 10347 10344 10341 10338 10335 10332 10329 10326 10322 10319 10316 10312 10308 10305 10302 10299 10296 10293 10290 10286 10282 10279 10276 10273 10269 10266 10263 10260 10258 10254 10251 10249 10246 10244 10242 10240 10239 10238 10236 10235 10233 10232 10231 10229